Regional Weather Roundup
Issued by NWS Upton, NY

Current Version | Previous Version | Graphics & Text | Print | Product List | Glossary Off
Versions: 1 2 3 4 5 6 7 8 9 10 11 12 13 14 15 16 17 18 19 20 21 22 23 24 25 26 27 28 29 30 31 32 33 34 35 36 37 38 39 40 41 42 43 44 45 46 47 48 49 50

000
ASUS41 KOKX 181305
RWROKX

REGIONAL WEATHER ROUNDUP
NATIONAL WEATHER SERVICE NEW YORK NY
800 AM EST THU DEC 18 2014

NOTE: "FAIR" INDICATES FEW OR NO CLOUDS BELOW 12,000 FEET WITH NO
SIGNIFICANT WEATHER AND/OR OBSTRUCTIONS TO VISIBILITY.

NYZ071-072-176-178-NJZ106-104-181400-
NEW YORK CITY METRO AREA


CITY           SKY/WX    TMP DP  RH WIND       PRES   REMARKS
CENTRAL PARK   MOCLDY    38  21  50 NW9G16    29.98S WCI  31
LAGUARDIA APRT PTCLDY    38  23  55 NW20G29   29.96R WCI  28
KENNEDY INTL   PTCLDY    39  21  48 NW16G28   29.96S WCI  30
NEWARK/LIBERTY MOCLDY    38  22  52 NW21      29.98R WCI  28
BRNX BOT. GARD   N/A    N/A N/A N/A W10       29.96F
TETERBORO      MOCLDY    38  21  50 NW16G22   29.96S WCI  29
$$

NYZ177-179-078>081-181400-
LONG ISLAND NEW YORK

CITY           SKY/WX    TMP DP  RH WIND       PRES   REMARKS
FARMINGDALE    CLEAR     38  23  55 NW15G21   29.95R WCI  29
ISLIP          PTCLDY    38  23  55 NW15G26   29.91R WCI  29
SHIRLEY        CLEAR     38  24  57 W13       29.93R WCI  30
WESTHAMPTON    CLEAR     37  24  59 W12       29.92R WCI  29
MONTAUK POINT    N/A     41  29  62 W14G30    29.87R
$$

NYZ052-065-067-181400-
HUDSON VALLEY

CITY           SKY/WX    TMP DP  RH WIND       PRES   REMARKS
WHITE PLAINS   MOCLDY    36  23  59 W16G23    29.91S WCI  26
NEWBURGH       MOCLDY    36  25  64 NW21G32   29.92S WCI  24
MONTGOMERY     CLOUDY    36  23  59 NW9G23    29.94R WCI  29
POUGHKEEPSIE   CLOUDY    38  22  52 W12       29.93R WCI  30
ALBANY         CLOUDY    35  26  69 NW15G22   29.90R WCI  25
$$

NJZ001-105-106-008-010-013-015-019>022-104-181400-
NEW JERSEY

CITY           SKY/WX    TMP DP  RH WIND       PRES   REMARKS
NEWARK/LIBERTY MOCLDY    38  22  52 NW21      29.98R WCI  28
TETERBORO      MOCLDY    38  21  50 NW16G22   29.96S WCI  29
CALDWELL       CLOUDY    37  22  54 NW7G16    29.98R WCI  32
MORRISTOWN     MOCLDY    39  23  52 NW10G23   29.99R WCI  32
SOMERVILLE     CLOUDY    37  21  52 NW10G17   29.98R WCI  30
SUSSEX         CLOUDY    36  22  56 VRB7G17   29.96S WCI  30
ANDOVER          N/A     34  21  59 VRB5      29.98R WCI  30
TRENTON        CLOUDY    35  21  56 W7        30.01  WCI  29
MILLVILLE      CLEAR     34  19  54 W9        30.08S WCI  27
ATLANTIC CITY  CLEAR     33  18  53 W12       30.06S WCI  24
WRIGHTSTOWN    FAIR      33  20  59 W8        30.00S WCI  27
TOMS RIVER     FAIR      34  21  60 CALM      30.01R
BELMAR         CLEAR     34  19  55 W9        29.99S WCI  26
$$

PAZ047>061-062-071-181400-
EASTERN PENNSYLVANIA

CITY           SKY/WX    TMP DP  RH WIND       PRES   REMARKS
PHILADELPHIA   PTCLDY    34  19  54 W10       30.07R WCI  26
ALLENTOWN      CLOUDY    36  21  54 NW16G23   30.02R WCI  26
SCRANTON       CLOUDY    33  22  63 NW16G28   30.00R WCI  23
$$

CTZ002-004>006-009-010-012-RIZ004-006-007-MAZ004-011-015-181400-
SOUTHERN NEW ENGLAND
 IN CT

CITY           SKY/WX    TMP DP  RH WIND       PRES   REMARKS
BRADLEY INTL   CLOUDY    37  26  64 W8        29.85R WCI  31
HARTFORD       CLOUDY    38  26  62 W8        29.88R WCI  32
DANBURY        PTCLDY    35  22  58 W8G18     29.91R WCI  29
WTRBRY/OXFORD  PTCLDY    34  23  64 NW6G21    29.88R WCI  29
BRIDGEPORT     CLEAR     38  25  59 W10       29.91R WCI  31
MERIDEN        PTCLDY    36  27  69 W6        29.89R WCI  31
NEW HAVEN      PTCLDY    40  26  57 W8        29.90R WCI  34
CHESTER        PTSUNNY   36  30  80 NW8       29.87R WCI  29
GROTON         MOCLDY    36  30  79 W10       29.85R WCI  28
WILLIMANTIC    CLOUDY    36  29  75 W14       29.83S WCI  27

 IN RI

CITY           SKY/WX    TMP DP  RH WIND       PRES   REMARKS
PROVIDENCE     MOCLDY    37  29  72 W14       29.80R WCI  28
BLOCK ISLAND   CLOUDY    39  28  65 W20G29    29.83R WCI  30
WESTERLY       CLOUDY    37  29  72 W12G17    29.84R WCI  29

 IN MA

CITY           SKY/WX    TMP DP  RH WIND       PRES   REMARKS
BOSTON         LGT RAIN  36  32  85 W17G25    29.76R WCI  26
WORCESTER      CLOUDY    32  28  85 W21G26    29.74R WCI  20
WESTFIELD      CLOUDY    38  25  59 W14G30    29.83R WCI  30
PROVINCETOWN     N/A     37  34  87 W21G28    29.74R WCI  27
NANTUCKET      CLOUDY    40  31  70 W20       29.76R WCI  30
$$

ANZ330-335-338-340-345-350-353-355-181400-
COASTAL MARINE OBSERVATIONS


STATION/POSITION TIME  SKY/WX   TEMP    WIND        PRES    VSBY  WAVE
                                AIR SEA DIR/SP/G                  HT/PER
                 (UTC)          (F)     (DEG/KT/KT) (MB)    (MI)  (FT/S)
NY HARB ENTRANCE 1300            39 46  290/ 21/ 25 1014.6          3/ 4
4S FIRE IS       1300               46                N/A           4/ 5
20S FIRE ISLAND  1200            40 50              1013.7          6/ 6
23SW MTP         1300                                 N/A           6/ 6
HUDSON CANYON    1300            42 55  300/ 23/ 33 1013.7         10/ 7
EXECUTION ROCKS  1300            39 42  300/ 19/ 27   N/A
WESTERN LI SOUND 1300            39     290/ 21/ 27   N/A           3/ 3
CENTRAL LI SOUND 1200            40 45  280/ 19/ 23   N/A           3/ 5
EASTERN LI SOUND NOT AVBL
ROBBINS REEF     1300            38     310/ 16/ 23 1013.5
$$


>>>>>>>>>>>>>>>>>>>>>>>>>>>> KEY <<<<<<<<<<<<<<<<<<<<<<<<<<<
>                                                          <
>     SKY/WX - SKY CONDITION/PRESENT WEATHER               <
>     TMP    - TEMPERATURE IN FAHRENHEIT                   <
>     DP     - DEWPOINT IN FAHRENHEIT                      <
>     RH     - RELATIVE HUMIDITY IN PERCENT                <
>     WIND   - DIRECTION AND SPEED IN MPH                  <
>     PRES   - MEAN SEA LEVEL PRESSURE IN INCHES OF HG     <
>     WCI    - WIND CHILL INDEX                            <
>     VSB    - VISIBILITY IN MILES                         <
>     HX     - HEAT INDEX                                  <
>     TC     - TEMPERATURE IN CELSIUS                      <
>     VRB    - VARIABLE WIND DIRECTION                     <
>                                                          <
>>>>>>>>>>>>>>>>>>>>>>>>>>>> KEY <<<<<<<<<<<<<<<<<<<<<<<<<<<




USA.gov is the U.S. government's official web portal to all federal, state and local government web resources and services.